This demonstration page uses our WeatherBlox Daily Observations layout. Learn more.

38.88101, -77.10428

Hourly Observations for April 22, 2020

Temp ( °F °C ) Dew Point ( °F °C ) Humidity (%) Winds ( mph kmh ) Pressure ( in mb ) Visibility ( mi km ) Precip ( " mm )
12:52 am 00:52 Mostly Clear 44 6.7 24 -4.4 45 45 NNW 18 30 29.89 1012 10 16.0934 0 0
1:52 am 01:52 Clear 42 5.6 25 -3.9 51 51 NNW 10 17 29.91 1013 10 16.0934 0 0
2:52 am 02:52 Clear 41 5 24 -4.4 51 51 NNW 8 13 29.91 1013 10 16.0934 0 0
3:52 am 03:52 Mostly Clear 40 4.4 23 -5 51 51 NNW 5 7 29.92 1013 10 16.0934 0 0
4:52 am 04:52 Clear 40 4.4 23 -5 51 51 Calm 29.94 1014 10 16.0934 0 0
5:52 am 05:52 Mostly Clear 38 3.3 21 -6.1 51 51 Calm 29.96 1015 10 16.0934 0 0
6:52 am 06:52 Mostly Sunny 40 4.4 18 -7.8 41 41 WNW 7 11 30 1016 10 16.0934 0 0
7:52 am 07:52 Sunny 43 6.1 17 -8.3 35 35 WNW 6 9 30.03 1017 10 16.0934 0 0
8:52 am 08:52 Sunny 45 7.2 19 -7.2 35 35 NNW 10 17 30.04 1017 10 16.0934 0 0
9:52 am 09:52 Mostly Sunny 48 8.9 17 -8.3 29 29 W 18 30 30.04 1017 10 16.0934 0 0
10:52 am 10:52 Sunny 49 9.4 16 -8.9 27 27 WNW 18 30 30.05 1018 10 16.0934 0 0
11:52 am 11:52 Sunny 52 11.1 16 -8.9 24 24 W 13 20 30.05 1018 10 16.0934 0 0
12:52 pm 12:52 Sunny 54 12.2 15 -9.4 21 21 WNW 14 22 30.02 1017 10 16.0934 0 0
1:52 pm 13:52 Sunny 57 13.9 15 -9.4 19 19 W 13 20 29.99 1016 10 16.0934 0 0
2:52 pm 14:52 Sunny 59 15 15 -9.4 18 18 W 20 31 29.98 1015 10 16.0934 0 0
3:52 pm 15:52 Mostly Sunny 61 16.1 17 -8.3 18 18 NW 13 20 29.96 1015 10 16.0934 0 0
4:52 pm 16:52 Mostly Sunny 61 16.1 19 -7.2 20 20 W 14 22 29.95 1014 10 16.0934 0 0
5:52 pm 17:52 Mostly Sunny 60 15.6 21 -6.1 22 22 NW 10 17 29.97 1015 10 16.0934 0 0
6:52 pm 18:52 Mostly Cloudy 61 16.1 23 -5 23 23 W 8 13 29.97 1015 10 16.0934 0 0
7:52 pm 19:52 Cloudy 59 15 25 -3.9 27 27 NW 10 17 29.98 1015 10 16.0934 0 0
8:52 pm 20:52 Mostly Cloudy 57 13.9 26 -3.3 30 30 NW 6 9 30.01 1016 10 16.0934 0 0
9:52 pm 21:52 Mostly Cloudy 57 13.9 26 -3.3 30 30 WNW 8 13 30.04 1017 10 16.0934 0 0
10:52 pm 22:52 Cloudy 57 13.9 28 -2.2 33 33 NW 8 13 30.06 1018 10 16.0934 0 0
11:52 pm 23:52 Cloudy 54 12.2 33 0.6 45 45 N 7 11 30.05 1018 10 16.0934 0 0

Powered by AerisWeather